, MS

(GMT )
Nakika

Weather History for KIKT - December, 2013

Change the Weather History Date:

Thursday, December 26, 2013

  Actual Average Record
Temperature  
Mean Temperature 60 °F -  
Max Temperature 62 °F - - ()
Min Temperature 57 °F - - ()
Degree Days  
Heating Degree Days 6    
Growing Degree Days 10 (Base 50)    
Moisture  
Dew Point 49 °F    
Average Humidity 65    
Maximum Humidity 77    
Minimum Humidity 51    
Precipitation  
Precipitation 0.00 in - - ()
Sea Level Pressure  
Sea Level Pressure 30.24 in    
Wind  
Wind Speed 13 mph (NNE)    
Max Wind Speed 21 mph    
Max Gust Speed 25 mph    
Visibility 10 miles    
Events      
T = Trace of Precipitation, MM = Missing Value Source: NWS Daily Summary

Daily Weather History Graph

Daily Weather History Graph

Search for Another Location

Airport or City:

Trip Planner

Search our weather history database for the weather conditions in past years. The results will help you decide how hot, cold, wet, or windy it might be!

Date:

Astronomy

Dec. 26, 2013 Rise Set
Actual Time 6:43 AM CST 5:04 PM CST
Civil Twilight 6:17 AM CST 5:29 PM CST
Nautical Twilight 5:48 AM CST 5:59 PM CST
Astronomical Twilight 5:19 AM CST 6:28 PM CST
Moon 12:33 AM CST (12/26) 12:20 PM CST (12/26)
Length of Visible Light 11h 12m
Length of Day
10h 20m
Last Quarter, 38% of the Moon is Illuminated
Dec 26
Last Quarter
Jan 1
New
Jan 7
First Quarter
Jan 15
Full
Jan 23
Last Quarter

Hourly Weather History & Observations

Time (CST) Temp. Dew Point Humidity Pressure Visibility Wind Dir Wind Speed Gust Speed Precip Events Conditions
12:15 AM 57.2 °F 48.2 °F 72% 30.25 in 9.0 mi ENE 10.4 mph - N/A   Overcast
12:35 AM 57.2 °F 48.2 °F 72% 30.25 in 10.0 mi NNE 12.7 mph - N/A   Overcast
12:55 AM 57.2 °F 48.2 °F 72% 30.25 in 10.0 mi NE 8.1 mph 13.8 mph N/A   Overcast
1:15 AM 57.2 °F 48.2 °F 72% 30.25 in 10.0 mi ENE 12.7 mph - N/A   Overcast
1:35 AM 59.0 °F 48.2 °F 67% 30.25 in 10.0 mi NE 8.1 mph - N/A   Overcast
1:55 AM 59.0 °F 48.2 °F 67% 30.25 in 10.0 mi NNE 9.2 mph - N/A   Overcast
2:15 AM 59.0 °F 46.4 °F 63% 30.26 in 10.0 mi Variable 5.8 mph 13.8 mph N/A   Overcast
2:35 AM 59.0 °F 44.6 °F 59% 30.26 in 10.0 mi NNE 8.1 mph 13.8 mph N/A   Overcast
2:55 AM 59.0 °F 44.6 °F 59% 30.25 in 10.0 mi North 8.1 mph 16.1 mph N/A   Overcast
3:15 AM 59.0 °F 42.8 °F 55% 30.24 in 10.0 mi North 11.5 mph 18.4 mph N/A   Overcast
3:35 AM 59.0 °F 42.8 °F 55% 30.24 in 10.0 mi North 12.7 mph 20.7 mph N/A   Mostly Cloudy
3:55 AM 60.8 °F 42.8 °F 52% 30.23 in 10.0 mi NNE 15.0 mph - N/A   Mostly Cloudy
4:15 AM 60.8 °F 42.8 °F 52% 30.23 in 10.0 mi Variable 6.9 mph 20.7 mph N/A   Scattered Clouds
4:35 AM 59.0 °F 42.8 °F 55% 30.23 in 10.0 mi Variable 12.7 mph 24.2 mph N/A   Clear
4:55 AM 59.0 °F 41.0 °F 51% 30.24 in 10.0 mi NNE 13.8 mph 19.6 mph N/A   Clear
5:15 AM 59.0 °F 44.6 °F 59% 30.24 in 10.0 mi NNE 13.8 mph - N/A   Mostly Cloudy
5:35 AM 59.0 °F 42.8 °F 55% 30.24 in 10.0 mi NNE 13.8 mph - N/A   Overcast
5:55 AM 59.0 °F 42.8 °F 55% 30.24 in 10.0 mi NNE 15.0 mph - N/A   Overcast
6:15 AM 59.0 °F 44.6 °F 59% 30.24 in 10.0 mi NNE 16.1 mph - N/A   Overcast
6:35 AM 59.0 °F 44.6 °F 59% 30.24 in 10.0 mi North 13.8 mph 23.0 mph N/A   Partly Cloudy
6:55 AM 59.0 °F 46.4 °F 63% 30.25 in 10.0 mi NNE 15.0 mph 23.0 mph N/A   Clear
7:15 AM 59.0 °F 44.6 °F 59% 30.26 in 10.0 mi NNE 15.0 mph - N/A   Clear
7:35 AM 59.0 °F 44.6 °F 59% 30.27 in 10.0 mi NNE 16.1 mph - N/A   Clear
7:55 AM 60.8 °F 46.4 °F 59% 30.27 in 10.0 mi NE 10.4 mph 23.0 mph N/A   Clear
8:15 AM 60.8 °F 48.2 °F 63% 30.27 in 10.0 mi NNE 15.0 mph - N/A   Clear
8:35 AM 60.8 °F 46.4 °F 59% 30.26 in 10.0 mi NNE 17.3 mph - N/A   Clear
8:55 AM 60.8 °F 46.4 °F 59% 30.27 in 10.0 mi NNE 13.8 mph 21.9 mph N/A   Clear
9:15 AM 60.8 °F 44.6 °F 55% 30.27 in 10.0 mi NNE 15.0 mph - N/A   Clear
9:35 AM 60.8 °F 48.2 °F 63% 30.28 in 10.0 mi NNE 15.0 mph 21.9 mph N/A   Clear
9:55 AM 62.6 °F 50.0 °F 63% 30.29 in 10.0 mi NNE 12.7 mph 20.7 mph N/A   Clear
10:15 AM 60.8 °F 48.2 °F 63% 30.29 in 10.0 mi NNE 15.0 mph - N/A   Partly Cloudy
10:35 AM 60.8 °F 48.2 °F 63% 30.28 in 10.0 mi NE 10.4 mph 19.6 mph N/A   Clear
10:55 AM 62.6 °F 48.2 °F 59% 30.28 in 10.0 mi NNE 16.1 mph - N/A   Partly Cloudy
11:15 AM 62.6 °F 50.0 °F 63% 30.27 in 10.0 mi NE 11.5 mph 19.6 mph N/A   Scattered Clouds
11:35 AM 62.6 °F 50.0 °F 63% 30.26 in 10.0 mi NNE 17.3 mph - N/A   Scattered Clouds
11:55 AM 62.6 °F 50.0 °F 63% 30.24 in 10.0 mi NNE 16.1 mph - N/A   Partly Cloudy
12:15 PM 60.8 °F 50.0 °F 68% 30.23 in 10.0 mi NNE 16.1 mph 25.3 mph N/A   Scattered Clouds
12:35 PM 60.8 °F 50.0 °F 68% 30.22 in 10.0 mi NNE 18.4 mph - N/A   Scattered Clouds
12:55 PM 60.8 °F 50.0 °F 68% 30.23 in 10.0 mi NE 9.2 mph 20.7 mph N/A   Scattered Clouds
1:15 PM 60.8 °F 48.2 °F 63% 30.21 in 10.0 mi NE 11.5 mph 19.6 mph N/A   Mostly Cloudy
1:35 PM 60.8 °F 48.2 °F 63% 30.21 in 10.0 mi NNE 17.3 mph - N/A   Mostly Cloudy
1:55 PM 60.8 °F 48.2 °F 63% 30.21 in 10.0 mi NNE 12.7 mph - N/A   Mostly Cloudy
2:15 PM 60.8 °F 50.0 °F 68% 30.20 in 10.0 mi NNE 12.7 mph 18.4 mph N/A   Scattered Clouds
2:35 PM 60.8 °F 50.0 °F 68% 30.19 in 10.0 mi NE 9.2 mph 20.7 mph N/A   Scattered Clouds
2:55 PM 60.8 °F 50.0 °F 68% 30.19 in 10.0 mi NNE 16.1 mph - N/A   Scattered Clouds
3:15 PM 60.8 °F 50.0 °F 68% 30.20 in 10.0 mi NNE 13.8 mph - N/A   Mostly Cloudy
3:35 PM 60.8 °F 50.0 °F 68% 30.20 in 10.0 mi NNE 16.1 mph - N/A   Mostly Cloudy
3:55 PM 60.8 °F 50.0 °F 68% 30.20 in 10.0 mi NNE 17.3 mph - N/A   Scattered Clouds
4:15 PM 60.8 °F 51.8 °F 72% 30.20 in 10.0 mi NNE 16.1 mph - N/A   Scattered Clouds
4:35 PM 60.8 °F 50.0 °F 68% 30.21 in 10.0 mi NNE 15.0 mph 21.9 mph N/A   Scattered Clouds
4:55 PM 60.8 °F 51.8 °F 72% 30.20 in 10.0 mi NNE 18.4 mph - N/A   Mostly Cloudy
5:15 PM 60.8 °F 51.8 °F 72% 30.21 in 10.0 mi NNE 18.4 mph 24.2 mph N/A   Mostly Cloudy
5:35 PM 60.8 °F 51.8 °F 72% 30.21 in 10.0 mi NNE 17.3 mph 24.2 mph N/A   Overcast
5:55 PM 60.8 °F 51.8 °F 72% 30.22 in - NNE 18.4 mph - N/A   Overcast
6:15 PM 60.8 °F 51.8 °F 72% 30.23 in 10.0 mi NNE 15.0 mph 24.2 mph N/A   Overcast
6:35 PM 60.8 °F 51.8 °F 72% 30.23 in 10.0 mi NNE 17.3 mph 24.2 mph N/A   Overcast
6:55 PM 60.8 °F 51.8 °F 72% 30.23 in 10.0 mi NNE 16.1 mph 23.0 mph N/A   Overcast
7:15 PM 62.6 °F 51.8 °F 68% 30.23 in 10.0 mi NNE 18.4 mph 25.3 mph N/A   Overcast
7:35 PM 62.6 °F 51.8 °F 68% 30.24 in 10.0 mi NNE 18.4 mph - N/A   Overcast
7:55 PM 62.6 °F 53.6 °F 72% 30.24 in 10.0 mi NNE 18.4 mph - N/A   Overcast
8:15 PM 62.6 °F 51.8 °F 68% 30.24 in 10.0 mi NNE 20.7 mph - N/A   Mostly Cloudy
8:35 PM 62.6 °F 53.6 °F 72% 30.25 in 10.0 mi NNE 16.1 mph 24.2 mph N/A   Overcast
8:55 PM 62.6 °F 51.8 °F 68% 30.25 in 10.0 mi NNE 17.3 mph - N/A   Overcast
9:15 PM 62.6 °F 51.8 °F 68% 30.25 in 10.0 mi NNE 17.3 mph 24.2 mph N/A   Overcast
9:35 PM 62.6 °F 51.8 °F 68% 30.24 in 10.0 mi NNE 15.0 mph 24.2 mph N/A   Overcast
9:55 PM 62.6 °F 53.6 °F 72% 30.24 in 10.0 mi NE 10.4 mph 20.7 mph N/A   Mostly Cloudy
10:15 PM 62.6 °F 53.6 °F 72% 30.24 in 10.0 mi NE 10.4 mph 20.7 mph N/A   Mostly Cloudy
10:35 PM 62.6 °F 53.6 °F 72% 30.23 in 10.0 mi NE 11.5 mph 18.4 mph N/A   Mostly Cloudy
10:55 PM 62.6 °F 53.6 °F 72% 30.24 in 10.0 mi NNE 15.0 mph - N/A   Mostly Cloudy
11:15 PM 62.6 °F 55.4 °F 77% 30.25 in 10.0 mi NNE 15.0 mph 21.9 mph N/A   Overcast
11:35 PM 62.6 °F 53.6 °F 72% 30.24 in 10.0 mi NE 11.5 mph 20.7 mph N/A   Overcast
11:55 PM 62.6 °F 53.6 °F 72% 30.24 in 10.0 mi NE 10.4 mph 18.4 mph N/A   Overcast